UAL1094 KCHS-KORD

Flight info

Callsign UAL1094
Flight time 2h 1m
Altitude 36000
Route MLTRE3 JYMSE BENBY Q93 HEVAN BONNT VEECK5
Aircraft B738/M-SDE2E3FGHIRWXY/LB1

Departure

Time 2026-04-23 09:38
Airport Charleston International Airport (KCHS)

Arrival

Time 2026-04-23 11:39
Airport Chicago O'Hare International Airport (KORD)
Time Latitude Longitude Altitude Speed Heading
2026-04-23 09:02 32.88602 -80.03871 40 ft 0 kts 101°
2026-04-23 09:27 32.88606 -80.03892 38 ft 4 kts 97°
2026-04-23 09:27 32.88608 -80.03924 36 ft 4 kts 87°
2026-04-23 09:28 32.88604 -80.03955 38 ft 4 kts 66°
2026-04-23 09:28 32.88590 -80.03977 38 ft 2 kts 27°
2026-04-23 09:28 32.88585 -80.03980 39 ft 0 kts 27°
2026-04-23 09:32 32.88588 -80.03978 40 ft 0 kts 26°
2026-04-23 09:33 32.88589 -80.03978 40 ft 1 kts 26°
2026-04-23 09:33 32.88598 -80.03981 38 ft 3 kts 335°
2026-04-23 09:33 32.88653 -80.04031 40 ft 16 kts 327°
2026-04-23 09:33 32.88731 -80.04013 40 ft 13 kts 46°
2026-04-23 09:34 32.88800 -80.03919 38 ft 17 kts 49°
2026-04-23 09:34 32.88876 -80.03810 39 ft 16 kts 50°
2026-04-23 09:34 32.88939 -80.03708 40 ft 15 kts 52°
2026-04-23 09:34 32.89002 -80.03612 39 ft 14 kts 51°
2026-04-23 09:35 32.89063 -80.03520 39 ft 14 kts 52°
2026-04-23 09:35 32.89128 -80.03421 40 ft 17 kts 52°
2026-04-23 09:35 32.89193 -80.03300 40 ft 4 kts 58°
2026-04-23 09:35 32.89199 -80.03290 40 ft 6 kts 56°
2026-04-23 09:36 32.89207 -80.03277 40 ft 1 kts 53°
2026-04-23 09:36 32.89253 -80.03263 39 ft 10 kts 338°
2026-04-23 09:36 32.89271 -80.03275 39 ft 0 kts 327°
2026-04-23 09:37 32.89320 -80.03313 39 ft 36 kts 328°
2026-04-23 09:37 32.89787 -80.03667 38 ft 121 kts 327°
2026-04-23 09:37 32.90705 -80.04358 94 ft 186 kts 326°
2026-04-23 09:38 32.91880 -80.05034 1093 ft 178 kts 333°
2026-04-23 09:38 32.93014 -80.05535 2227 ft 178 kts 340°
2026-04-23 09:38 32.94253 -80.06073 2662 ft 204 kts 334°
2026-04-23 09:38 32.95632 -80.06804 2907 ft 231 kts 333°
2026-04-23 09:39 32.97154 -80.07614 3316 ft 244 kts 334°
2026-04-23 09:39 32.98729 -80.08431 3940 ft 246 kts 334°
2026-04-23 09:39 33.00268 -80.09214 4695 ft 244 kts 335°
2026-04-23 09:39 33.01833 -80.09999 5357 ft 243 kts 335°
2026-04-23 09:40 33.03378 -80.10766 6141 ft 237 kts 335°
2026-04-23 09:40 33.04923 -80.11529 6663 ft 243 kts 336°
2026-04-23 09:40 33.06495 -80.12302 7211 ft 246 kts 335°
2026-04-23 09:40 33.08082 -80.13080 7807 ft 247 kts 335°
2026-04-23 09:41 33.09680 -80.13863 8341 ft 251 kts 335°
2026-04-23 09:41 33.11319 -80.14664 8851 ft 256 kts 335°
2026-04-23 09:41 33.12971 -80.15470 9445 ft 257 kts 334°
2026-04-23 09:41 33.14637 -80.16282 9980 ft 261 kts 334°
2026-04-23 09:42 33.16329 -80.17108 10470 ft 263 kts 335°
2026-04-23 09:42 33.18026 -80.17935 10977 ft 265 kts 335°
2026-04-23 09:42 33.19739 -80.18770 11474 ft 267 kts 335°
2026-04-23 09:42 33.21462 -80.19611 11970 ft 268 kts 335°
2026-04-23 09:43 33.23180 -80.20449 12444 ft 271 kts 335°
2026-04-23 09:43 33.24930 -80.21304 12921 ft 273 kts 335°
2026-04-23 09:43 33.26696 -80.22166 13398 ft 275 kts 335°
2026-04-23 09:43 33.28477 -80.23036 13865 ft 278 kts 335°
2026-04-23 09:44 33.30276 -80.23915 14320 ft 279 kts 335°
2026-04-23 09:44 33.32076 -80.24795 14754 ft 280 kts 335°
2026-04-23 09:44 33.33885 -80.25676 15176 ft 282 kts 336°
2026-04-23 09:44 33.35735 -80.26537 15458 ft 293 kts 337°
2026-04-23 09:45 33.37703 -80.27434 15553 ft 313 kts 337°
2026-04-23 09:45 33.39816 -80.28395 15712 ft 334 kts 337°
2026-04-23 09:45 33.42059 -80.29416 15866 ft 354 kts 338°
2026-04-23 09:45 33.44385 -80.30477 16161 ft 368 kts 338°
2026-04-23 09:46 33.46824 -80.31590 16767 ft 372 kts 338°
2026-04-23 09:46 33.49222 -80.32687 17459 ft 374 kts 338°
2026-04-23 09:46 33.51662 -80.33804 18129 ft 376 kts 338°
2026-04-23 09:46 33.54112 -80.34928 18734 ft 379 kts 338°
2026-04-23 09:47 33.56530 -80.36227 19223 ft 383 kts 332°
2026-04-23 09:47 33.58873 -80.37786 19799 ft 385 kts 329°
2026-04-23 09:47 33.61181 -80.39432 20369 ft 387 kts 328°
2026-04-23 09:47 33.63496 -80.41108 20879 ft 390 kts 328°
2026-04-23 09:48 33.65835 -80.42794 21366 ft 394 kts 329°
2026-04-23 09:48 33.68207 -80.44485 21858 ft 398 kts 329°
2026-04-23 09:48 33.70600 -80.46176 22337 ft 401 kts 329°
2026-04-23 09:48 33.73019 -80.47872 22825 ft 404 kts 329°
2026-04-23 09:49 33.75457 -80.49574 23271 ft 407 kts 329°
2026-04-23 09:49 33.77920 -80.51290 23728 ft 411 kts 329°
2026-04-23 09:49 33.80402 -80.53017 24113 ft 413 kts 329°
2026-04-23 09:49 33.82897 -80.54754 24523 ft 415 kts 329°
2026-04-23 09:50 33.85405 -80.56499 24938 ft 417 kts 329°
2026-04-23 09:50 33.87915 -80.58248 25368 ft 418 kts 329°
2026-04-23 09:50 33.90438 -80.60007 25787 ft 419 kts 329°
2026-04-23 09:50 33.92962 -80.61768 26157 ft 421 kts 329°
2026-04-23 09:51 33.95510 -80.63547 26500 ft 424 kts 329°
2026-04-23 09:51 33.98062 -80.65331 26853 ft 426 kts 329°
2026-04-23 09:51 34.00596 -80.67103 27212 ft 428 kts 329°
2026-04-23 09:51 34.03172 -80.68905 27560 ft 430 kts 329°
2026-04-23 09:52 34.05763 -80.70720 27900 ft 432 kts 329°
2026-04-23 09:52 34.08367 -80.72545 28235 ft 433 kts 329°
2026-04-23 09:52 34.10979 -80.74377 28573 ft 435 kts 329°
2026-04-23 09:52 34.13606 -80.76221 28908 ft 437 kts 330°
2026-04-23 09:53 34.16238 -80.78070 29248 ft 438 kts 330°
2026-04-23 09:53 34.18879 -80.79926 29590 ft 439 kts 330°
2026-04-23 09:53 34.21514 -80.81780 30033 ft 438 kts 330°
2026-04-23 09:53 34.24136 -80.83625 30481 ft 435 kts 330°
2026-04-23 09:54 34.26748 -80.85465 30877 ft 433 kts 330°
2026-04-23 09:54 34.29355 -80.87303 31220 ft 432 kts 330°
2026-04-23 09:54 34.31952 -80.89135 31545 ft 432 kts 330°
2026-04-23 09:54 34.34547 -80.90967 31892 ft 431 kts 330°
2026-04-23 09:55 34.37126 -80.92790 32246 ft 430 kts 330°
2026-04-23 09:55 34.39711 -80.94617 32583 ft 429 kts 330°
2026-04-23 09:55 34.42281 -80.96435 32922 ft 427 kts 330°
2026-04-23 09:55 34.44839 -80.98247 33312 ft 425 kts 330°
2026-04-23 09:56 34.47391 -81.00055 33655 ft 424 kts 330°
2026-04-23 09:56 34.49905 -81.01837 33957 ft 424 kts 330°
2026-04-23 09:56 34.52448 -81.03642 34248 ft 423 kts 330°
2026-04-23 09:56 34.54981 -81.05440 34534 ft 421 kts 330°
2026-04-23 09:57 34.57512 -81.07238 34803 ft 421 kts 330°
2026-04-23 09:57 34.60033 -81.09031 35053 ft 420 kts 330°
2026-04-23 09:57 34.62550 -81.10822 35300 ft 419 kts 330°
2026-04-23 09:57 34.65067 -81.12614 35560 ft 419 kts 330°
2026-04-23 09:58 34.67575 -81.14401 35818 ft 418 kts 330°
2026-04-23 09:58 34.70079 -81.16187 36119 ft 416 kts 330°
2026-04-23 09:58 34.72585 -81.17975 36104 ft 420 kts 330°
2026-04-23 09:59 34.77638 -81.21584 36135 ft 421 kts 330°
2026-04-23 09:59 34.82649 -81.25169 36128 ft 415 kts 330°
2026-04-23 10:00 34.87614 -81.28726 36128 ft 413 kts 330°
2026-04-23 10:00 34.92560 -81.32274 36127 ft 412 kts 330°
2026-04-23 10:01 34.97458 -81.35793 36126 ft 411 kts 330°
2026-04-23 10:01 35.02393 -81.39343 36114 ft 412 kts 330°
2026-04-23 10:02 35.07335 -81.42903 36113 ft 413 kts 330°
2026-04-23 10:02 35.12295 -81.46482 36111 ft 415 kts 330°
2026-04-23 10:03 35.16457 -81.49489 36103 ft 416 kts 330°
2026-04-23 10:03 35.22260 -81.53687 36106 ft 417 kts 330°
2026-04-23 10:04 35.26417 -81.56699 36124 ft 418 kts 330°
2026-04-23 10:04 35.31430 -81.60336 36118 ft 419 kts 330°
2026-04-23 10:05 35.36449 -81.63982 36117 ft 419 kts 330°
2026-04-23 10:05 35.41460 -81.67628 36097 ft 418 kts 330°
2026-04-23 10:06 35.46463 -81.71274 36110 ft 418 kts 330°
2026-04-23 10:06 35.51456 -81.74918 36122 ft 418 kts 330°
2026-04-23 10:07 35.56449 -81.78566 36104 ft 417 kts 330°
2026-04-23 10:07 35.61432 -81.82214 36112 ft 416 kts 330°
2026-04-23 10:08 35.66405 -81.85859 36104 ft 416 kts 330°
2026-04-23 10:08 35.71365 -81.89500 36096 ft 415 kts 330°
2026-04-23 10:09 35.78886 -81.94695 36104 ft 414 kts 334°
2026-04-23 10:09 35.84046 -81.97833 36127 ft 414 kts 335°
2026-04-23 10:10 35.89216 -82.00979 36123 ft 413 kts 334°
2026-04-23 10:10 35.94369 -82.04155 36114 ft 414 kts 334°
2026-04-23 10:11 35.99518 -82.07351 36131 ft 414 kts 334°
2026-04-23 10:11 36.04679 -82.10564 36126 ft 415 kts 334°
2026-04-23 10:12 36.09843 -82.13784 36126 ft 416 kts 334°
2026-04-23 10:12 36.15015 -82.17013 36118 ft 417 kts 334°
2026-04-23 10:13 36.20163 -82.20232 36123 ft 417 kts 334°
2026-04-23 10:13 36.25348 -82.23477 36119 ft 417 kts 334°
2026-04-23 10:14 36.30524 -82.26723 36121 ft 417 kts 334°
2026-04-23 10:14 36.35702 -82.29975 36108 ft 417 kts 334°
2026-04-23 10:15 36.40875 -82.33229 36104 ft 416 kts 334°
2026-04-23 10:15 36.46030 -82.36476 36109 ft 415 kts 334°
2026-04-23 10:16 36.51179 -82.39724 36150 ft 414 kts 334°
2026-04-23 10:16 36.56310 -82.42966 36084 ft 414 kts 334°
2026-04-23 10:17 36.61446 -82.46216 36086 ft 413 kts 334°
2026-04-23 10:17 36.66555 -82.49453 36084 ft 412 kts 333°
2026-04-23 10:18 36.71662 -82.52695 36114 ft 412 kts 333°
2026-04-23 10:18 36.76735 -82.55920 36144 ft 411 kts 334°
2026-04-23 10:19 36.81783 -82.59299 36141 ft 412 kts 326°
2026-04-23 10:19 36.86318 -82.63670 36156 ft 412 kts 323°
2026-04-23 10:20 36.90816 -82.68112 36163 ft 412 kts 323°
2026-04-23 10:20 36.95333 -82.72532 36153 ft 412 kts 323°
2026-04-23 10:21 36.99862 -82.76949 36142 ft 412 kts 323°
2026-04-23 10:21 37.04387 -82.81368 36132 ft 413 kts 323°
2026-04-23 10:22 37.08913 -82.85804 36119 ft 413 kts 322°
2026-04-23 10:22 37.13319 -82.90363 36093 ft 414 kts 321°
2026-04-23 10:23 37.17735 -82.94999 36086 ft 414 kts 321°
2026-04-23 10:23 37.22158 -82.99616 36083 ft 414 kts 321°
2026-04-23 10:24 37.26588 -83.04217 36105 ft 413 kts 322°
2026-04-23 10:24 37.31105 -83.08700 36121 ft 413 kts 323°
2026-04-23 10:25 37.35627 -83.13139 36119 ft 413 kts 323°
2026-04-23 10:25 37.40140 -83.17594 36116 ft 412 kts 323°
2026-04-23 10:26 37.44636 -83.22053 36129 ft 411 kts 323°
2026-04-23 10:26 37.49094 -83.26488 36128 ft 411 kts 323°
2026-04-23 10:27 37.53583 -83.30963 36123 ft 411 kts 322°
2026-04-23 10:27 37.58071 -83.35442 36111 ft 411 kts 322°
2026-04-23 10:28 37.62557 -83.39927 36112 ft 411 kts 322°
2026-04-23 10:28 37.67035 -83.44411 36073 ft 411 kts 322°
2026-04-23 10:29 37.71514 -83.48903 36071 ft 411 kts 322°
2026-04-23 10:29 37.75984 -83.53393 36067 ft 410 kts 322°
2026-04-23 10:30 37.80452 -83.57888 36077 ft 410 kts 322°
2026-04-23 10:30 37.84884 -83.62355 36065 ft 410 kts 322°
2026-04-23 10:31 37.89341 -83.66853 36067 ft 409 kts 322°
2026-04-23 10:31 37.93793 -83.71354 36063 ft 409 kts 322°
2026-04-23 10:32 37.98236 -83.75853 36095 ft 409 kts 322°
2026-04-23 10:32 38.02685 -83.80364 36101 ft 409 kts 322°
2026-04-23 10:33 38.07125 -83.84874 36111 ft 409 kts 322°
2026-04-23 10:33 38.11564 -83.89390 36110 ft 409 kts 322°
2026-04-23 10:34 38.15999 -83.93910 36098 ft 408 kts 322°
2026-04-23 10:34 38.20430 -83.98433 36102 ft 408 kts 322°
2026-04-23 10:35 38.24854 -84.02957 36093 ft 408 kts 322°
2026-04-23 10:35 38.29281 -84.07490 36080 ft 408 kts 322°
2026-04-23 10:36 38.33706 -84.12029 36067 ft 409 kts 322°
2026-04-23 10:36 38.38109 -84.16551 36056 ft 409 kts 322°
2026-04-23 10:37 38.42565 -84.21064 36057 ft 409 kts 323°
2026-04-23 10:37 38.47094 -84.25472 36057 ft 409 kts 323°
2026-04-23 10:38 38.51625 -84.29875 36049 ft 410 kts 323°
2026-04-23 10:38 38.56150 -84.34297 36071 ft 409 kts 323°
2026-04-23 10:39 38.60677 -84.38740 36063 ft 410 kts 323°
2026-04-23 10:39 38.65191 -84.43181 36056 ft 409 kts 323°
2026-04-23 10:40 38.69701 -84.47624 36064 ft 409 kts 323°
2026-04-23 10:40 38.74209 -84.52074 36055 ft 409 kts 323°
2026-04-23 10:41 38.78709 -84.56522 36066 ft 408 kts 323°
2026-04-23 10:41 38.83174 -84.60943 36050 ft 408 kts 323°
2026-04-23 10:42 38.87657 -84.65390 36052 ft 407 kts 323°
2026-04-23 10:42 38.92128 -84.69831 36045 ft 406 kts 323°
2026-04-23 10:43 38.96596 -84.74276 36056 ft 405 kts 323°
2026-04-23 10:43 39.01046 -84.78711 36067 ft 404 kts 323°
2026-04-23 10:44 39.05492 -84.83150 36050 ft 404 kts 323°
2026-04-23 10:44 39.09935 -84.87593 36053 ft 404 kts 323°
2026-04-23 10:45 39.14370 -84.92035 36046 ft 404 kts 323°
2026-04-23 10:45 39.18780 -84.96459 36039 ft 404 kts 323°
2026-04-23 10:46 39.23205 -85.00906 36044 ft 404 kts 323°
2026-04-23 10:46 39.27639 -85.05370 36034 ft 404 kts 323°
2026-04-23 10:47 39.32063 -85.09830 36043 ft 404 kts 323°
2026-04-23 10:47 39.36759 -85.13764 36046 ft 403 kts 335°
2026-04-23 10:48 39.42007 -85.16296 36032 ft 403 kts 340°
2026-04-23 10:48 39.47292 -85.18749 36031 ft 403 kts 339°
2026-04-23 10:49 39.51674 -85.20806 36034 ft 403 kts 339°
2026-04-23 10:49 39.56948 -85.23303 36028 ft 403 kts 339°
2026-04-23 10:50 39.62215 -85.25808 36024 ft 403 kts 339°
2026-04-23 10:50 39.67480 -85.28318 36019 ft 403 kts 339°
2026-04-23 10:51 39.72747 -85.30832 36027 ft 403 kts 339°
2026-04-23 10:51 39.78000 -85.33344 36036 ft 403 kts 339°
2026-04-23 10:52 39.83260 -85.35863 36037 ft 402 kts 339°
2026-04-23 10:52 39.88509 -85.38381 36035 ft 401 kts 339°
2026-04-23 10:53 39.93752 -85.40901 36036 ft 401 kts 339°
2026-04-23 10:53 39.98983 -85.43418 35991 ft 400 kts 339°
2026-04-23 10:54 40.04176 -85.45922 35998 ft 400 kts 339°
2026-04-23 10:54 40.09389 -85.48439 35997 ft 399 kts 339°
2026-04-23 10:55 40.14592 -85.50956 35997 ft 399 kts 339°
2026-04-23 10:55 40.19798 -85.53478 36003 ft 399 kts 339°
2026-04-23 10:56 40.25001 -85.56002 36024 ft 399 kts 339°
2026-04-23 10:56 40.30197 -85.58528 36021 ft 399 kts 339°
2026-04-23 10:57 40.35397 -85.61060 35996 ft 399 kts 339°
2026-04-23 10:57 40.40601 -85.63598 36011 ft 398 kts 339°
2026-04-23 10:58 40.45767 -85.66121 35996 ft 398 kts 339°
2026-04-23 10:58 40.50995 -85.68557 36019 ft 399 kts 342°
2026-04-23 10:59 40.56343 -85.70523 36031 ft 398 kts 343°
2026-04-23 10:59 40.61692 -85.72439 36031 ft 398 kts 343°
2026-04-23 11:00 40.67032 -85.74392 36018 ft 398 kts 343°
2026-04-23 11:00 40.72373 -85.76365 36017 ft 398 kts 343°
2026-04-23 11:01 40.77709 -85.78342 36014 ft 398 kts 343°
2026-04-23 11:01 40.83037 -85.80382 36007 ft 398 kts 337°
2026-04-23 11:02 40.85402 -85.82242 36042 ft 398 kts 321°
2026-04-23 11:02 40.87374 -85.84819 36003 ft 401 kts 310°
2026-04-23 11:02 40.88827 -85.87925 36017 ft 405 kts 298°
2026-04-23 11:02 40.89979 -85.91329 36013 ft 406 kts 297°
2026-04-23 11:03 40.92155 -85.98247 35997 ft 408 kts 296°
2026-04-23 11:03 40.94338 -86.05164 35874 ft 407 kts 296°
2026-04-23 11:04 40.95434 -86.08591 35576 ft 401 kts 296°
2026-04-23 11:04 40.96518 -86.11964 35160 ft 397 kts 297°
2026-04-23 11:04 40.97593 -86.15298 34783 ft 392 kts 297°
2026-04-23 11:04 40.98661 -86.18608 34389 ft 389 kts 296°
2026-04-23 11:05 40.99722 -86.21895 33996 ft 386 kts 296°
2026-04-23 11:05 41.00773 -86.25155 33545 ft 384 kts 296°
2026-04-23 11:05 41.01817 -86.28400 33136 ft 381 kts 296°
2026-04-23 11:05 41.02850 -86.31612 32742 ft 378 kts 296°
2026-04-23 11:06 41.04882 -86.37946 31977 ft 372 kts 296°
2026-04-23 11:06 41.05888 -86.41089 31606 ft 370 kts 296°
2026-04-23 11:06 41.06889 -86.44217 31234 ft 367 kts 295°
2026-04-23 11:07 41.07880 -86.47320 30877 ft 365 kts 295°
2026-04-23 11:07 41.08864 -86.50404 30519 ft 362 kts 295°
2026-04-23 11:07 41.09844 -86.53476 30158 ft 360 kts 295°
2026-04-23 11:07 41.10815 -86.56524 29745 ft 358 kts 295°
2026-04-23 11:08 41.11780 -86.59558 29320 ft 355 kts 295°
2026-04-23 11:08 41.12764 -86.62544 28896 ft 352 kts 298°
2026-04-23 11:08 41.13924 -86.65437 28249 ft 356 kts 301°
2026-04-23 11:08 41.15132 -86.68290 27779 ft 355 kts 301°
2026-04-23 11:09 41.16343 -86.71125 27404 ft 352 kts 301°
2026-04-23 11:09 41.17530 -86.73912 27039 ft 349 kts 301°
2026-04-23 11:09 41.18729 -86.76746 26665 ft 346 kts 301°
2026-04-23 11:09 41.19901 -86.79531 26301 ft 344 kts 301°
2026-04-23 11:10 41.22413 -86.85535 25526 ft 340 kts 301°
2026-04-23 11:10 41.23539 -86.88235 25169 ft 338 kts 301°
2026-04-23 11:10 41.24673 -86.90958 24818 ft 336 kts 302°
2026-04-23 11:11 41.25802 -86.93671 24461 ft 335 kts 302°
2026-04-23 11:11 41.26927 -86.96379 24087 ft 333 kts 301°
2026-04-23 11:11 41.28045 -86.99070 23734 ft 333 kts 302°
2026-04-23 11:11 41.29164 -87.01767 23313 ft 333 kts 302°
2026-04-23 11:12 41.30281 -87.04463 22935 ft 331 kts 301°
2026-04-23 11:12 41.31017 -87.06240 22700 ft 329 kts 301°
2026-04-23 11:12 41.32117 -87.08899 22367 ft 327 kts 301°
2026-04-23 11:12 41.33208 -87.11536 22016 ft 324 kts 301°
2026-04-23 11:13 41.34292 -87.14161 21676 ft 322 kts 301°
2026-04-23 11:13 41.35366 -87.16763 21355 ft 319 kts 301°
2026-04-23 11:13 41.36567 -87.19221 20996 ft 315 kts 311°
2026-04-23 11:13 41.38075 -87.21337 20522 ft 316 kts 320°
2026-04-23 11:14 41.39714 -87.23276 20148 ft 315 kts 320°
2026-04-23 11:14 41.41355 -87.25204 19814 ft 313 kts 320°
2026-04-23 11:14 41.42983 -87.27126 19479 ft 312 kts 320°
2026-04-23 11:14 41.44601 -87.29050 19150 ft 310 kts 320°
2026-04-23 11:15 41.46204 -87.30965 18822 ft 309 kts 320°
2026-04-23 11:15 41.47781 -87.32853 18499 ft 308 kts 320°
2026-04-23 11:15 41.49391 -87.34784 18172 ft 306 kts 320°
2026-04-23 11:15 41.50994 -87.36593 17823 ft 304 kts 325°
2026-04-23 11:16 41.52727 -87.38190 17507 ft 301 kts 328°
2026-04-23 11:16 41.54471 -87.39709 17193 ft 298 kts 328°
2026-04-23 11:16 41.56203 -87.41217 16874 ft 296 kts 328°
2026-04-23 11:16 41.57918 -87.42724 16538 ft 294 kts 327°
2026-04-23 11:17 41.59616 -87.44232 16219 ft 292 kts 327°
2026-04-23 11:17 41.61298 -87.45736 15903 ft 290 kts 327°
2026-04-23 11:17 41.62970 -87.47236 15594 ft 289 kts 327°
2026-04-23 11:17 41.64634 -87.48732 15282 ft 287 kts 327°
2026-04-23 11:18 41.66248 -87.50266 14962 ft 282 kts 322°
2026-04-23 11:18 41.67723 -87.51950 14660 ft 274 kts 320°
2026-04-23 11:18 41.69137 -87.53609 14362 ft 267 kts 319°
2026-04-23 11:18 41.70232 -87.55572 14058 ft 264 kts 294°
2026-04-23 11:19 41.70643 -87.57901 13817 ft 260 kts 277°
2026-04-23 11:19 41.70676 -87.60270 13669 ft 247 kts 274°
2026-04-23 11:19 41.70679 -87.62546 13436 ft 245 kts 274°
2026-04-23 11:19 41.70678 -87.64794 13334 ft 238 kts 274°
2026-04-23 11:20 41.70674 -87.66995 13122 ft 239 kts 274°
2026-04-23 11:20 41.70678 -87.69307 12434 ft 254 kts 274°
2026-04-23 11:20 41.70690 -87.71700 11836 ft 261 kts 274°
2026-04-23 11:20 41.70713 -87.74158 11236 ft 267 kts 274°
2026-04-23 11:21 41.70746 -87.76672 10643 ft 273 kts 274°
2026-04-23 11:21 41.70786 -87.79226 10063 ft 277 kts 274°
2026-04-23 11:21 41.70836 -87.81828 9436 ft 281 kts 274°
2026-04-23 11:21 41.70889 -87.84457 8805 ft 284 kts 274°
2026-04-23 11:22 41.70949 -87.87107 8184 ft 286 kts 274°
2026-04-23 11:22 41.71018 -87.89773 7569 ft 287 kts 274°
2026-04-23 11:22 41.71097 -87.92446 6977 ft 288 kts 274°
2026-04-23 11:22 41.71183 -87.95133 6375 ft 289 kts 274°
2026-04-23 11:23 41.71282 -87.97827 5765 ft 290 kts 274°
2026-04-23 11:23 41.71403 -88.00499 5285 ft 285 kts 274°
2026-04-23 11:23 41.71543 -88.03065 5048 ft 271 kts 274°
2026-04-23 11:23 41.71690 -88.05500 4980 ft 253 kts 274°
2026-04-23 11:24 41.71832 -88.07759 4971 ft 234 kts 274°
2026-04-23 11:24 41.71985 -88.09851 4955 ft 217 kts 280°
2026-04-23 11:24 41.72723 -88.11558 4987 ft 220 kts 323°
2026-04-23 11:24 41.74165 -88.12159 4990 ft 223 kts
2026-04-23 11:25 41.75550 -88.11349 4998 ft 221 kts 39°
2026-04-23 11:25 41.76829 -88.10184 4980 ft 224 kts 31°
2026-04-23 11:25 41.77954 -88.08762 4968 ft 225 kts 61°
2026-04-23 11:25 41.78574 -88.06847 4996 ft 226 kts 69°
2026-04-23 11:26 41.79108 -88.04861 4993 ft 228 kts 70°
2026-04-23 11:26 41.79642 -88.02845 4999 ft 231 kts 70°
2026-04-23 11:26 41.80176 -88.00809 4988 ft 231 kts 70°
2026-04-23 11:26 41.80706 -87.98785 4995 ft 228 kts 70°
2026-04-23 11:27 41.81228 -87.96792 4995 ft 225 kts 70°
2026-04-23 11:27 41.81745 -87.94805 4979 ft 226 kts 70°
2026-04-23 11:27 41.82263 -87.92831 4989 ft 223 kts 70°
2026-04-23 11:27 41.82771 -87.90872 4985 ft 222 kts 73°
2026-04-23 11:28 41.83173 -87.88853 5004 ft 226 kts 76°
2026-04-23 11:28 41.83550 -87.86796 5016 ft 228 kts 76°
2026-04-23 11:28 41.83925 -87.84731 5003 ft 228 kts 76°
2026-04-23 11:28 41.84299 -87.82669 4992 ft 226 kts 76°
2026-04-23 11:29 41.84668 -87.80632 5006 ft 224 kts 76°
2026-04-23 11:29 41.85032 -87.78619 4993 ft 225 kts 76°
2026-04-23 11:29 41.85404 -87.76577 4994 ft 226 kts 76°
2026-04-23 11:29 41.85774 -87.74541 4996 ft 224 kts 76°
2026-04-23 11:30 41.86144 -87.72508 4996 ft 223 kts 76°
2026-04-23 11:30 41.86510 -87.70491 5003 ft 223 kts 76°
2026-04-23 11:30 41.86872 -87.68457 5021 ft 226 kts 76°
2026-04-23 11:30 41.87237 -87.66393 5011 ft 227 kts 76°
2026-04-23 11:31 41.87598 -87.64332 5008 ft 226 kts 76°
2026-04-23 11:31 41.87956 -87.62276 4999 ft 226 kts 76°
2026-04-23 11:31 41.88320 -87.60232 4994 ft 225 kts 72°
2026-04-23 11:31 41.89088 -87.58463 4995 ft 218 kts 38°
2026-04-23 11:32 41.90379 -87.57442 5021 ft 218 kts 22°
2026-04-23 11:32 41.91778 -87.56618 5024 ft 221 kts 21°
2026-04-23 11:32 41.93197 -87.55799 5017 ft 221 kts 21°
2026-04-23 11:32 41.94611 -87.54990 5015 ft 220 kts 21°
2026-04-23 11:33 41.96027 -87.54212 5005 ft 219 kts 14°
2026-04-23 11:33 41.97488 -87.54248 5007 ft 210 kts 333°
2026-04-23 11:33 41.98494 -87.55584 5023 ft 208 kts 290°
2026-04-23 11:33 41.98733 -87.57500 5030 ft 212 kts 275°
2026-04-23 11:34 41.98840 -87.59476 4888 ft 218 kts 272°
2026-04-23 11:34 41.98876 -87.61534 4605 ft 221 kts 270°
2026-04-23 11:34 41.98877 -87.63585 4332 ft 218 kts 270°
2026-04-23 11:34 41.98870 -87.65600 4048 ft 213 kts 270°
2026-04-23 11:35 41.98864 -87.67552 3759 ft 203 kts 270°
2026-04-23 11:35 41.98859 -87.69395 3499 ft 191 kts 270°
2026-04-23 11:35 41.98856 -87.71124 3239 ft 181 kts 269°
2026-04-23 11:35 41.98852 -87.72777 3017 ft 176 kts 268°
2026-04-23 11:36 41.98848 -87.74417 2783 ft 172 kts 269°
2026-04-23 11:36 41.98846 -87.75984 2602 ft 163 kts 269°
2026-04-23 11:36 41.98843 -87.77498 2361 ft 161 kts 269°
2026-04-23 11:36 41.98841 -87.78997 2141 ft 161 kts 270°
2026-04-23 11:37 41.98839 -87.80511 1932 ft 164 kts 270°
2026-04-23 11:37 41.98837 -87.82057 1716 ft 166 kts 271°
2026-04-23 11:37 41.98835 -87.83616 1486 ft 168 kts 272°
2026-04-23 11:37 41.98834 -87.85203 1281 ft 170 kts 272°
2026-04-23 11:38 41.98817 -87.86809 1002 ft 178 kts 271°
2026-04-23 11:38 41.98831 -87.88555 822 ft 195 kts 271°
2026-04-23 11:38 41.98832 -87.90313 669 ft 176 kts 270°
2026-04-23 11:38 41.98827 -87.91783 667 ft 120 kts 266°
2026-04-23 11:39 41.98832 -87.92628 671 ft 73 kts 270°
2026-04-23 11:39 41.98800 -87.92995 669 ft 18 kts 214°
2026-04-23 11:39 41.98732 -87.93013 668 ft 0 kts 178°
2026-04-23 11:40 41.98731 -87.93013 668 ft 1 kts 178°
2026-04-23 11:40 41.98694 -87.93010 668 ft 9 kts 179°
2026-04-23 11:41 41.98588 -87.93014 668 ft 24 kts 179°
2026-04-23 11:41 41.98399 -87.93012 670 ft 30 kts 180°
2026-04-23 11:41 41.98203 -87.92985 668 ft 21 kts 127°
2026-04-23 11:41 41.98190 -87.92735 668 ft 34 kts 90°
2026-04-23 11:42 41.98190 -87.92382 668 ft 38 kts 91°
2026-04-23 11:42 41.98170 -87.92088 668 ft 20 kts 96°
2026-04-23 11:42 41.98164 -87.91900 668 ft 21 kts 89°
2026-04-23 11:42 41.98165 -87.91679 668 ft 27 kts 90°
2026-04-23 11:43 41.98166 -87.91425 669 ft 20 kts 89°
2026-04-23 11:43 41.98130 -87.91264 668 ft 12 kts 122°
2026-04-23 11:43 41.98094 -87.91186 666 ft 2 kts 123°
2026-04-23 11:43 41.98062 -87.91180 668 ft 9 kts 194°
2026-04-23 11:44 41.97981 -87.91213 668 ft 12 kts 173°
2026-04-23 11:44 41.97916 -87.91149 668 ft 10 kts 108°
2026-04-23 11:44 41.97910 -87.91114 668 ft 0 kts 102°